Wahoo, NE

3:48 PM CST on December 16, 2017 (GMT -0600)
Wahoo Municipal

Weather History for KAHQ - May, 2013

Change the Weather History Date:

Sunday, May 5, 2013

  Actual Average Record
Temperature  
Mean Temperature 48 °F -  
Max Temperature 56 °F 72 °F 95 °F (1966)
Min Temperature 41 °F 47 °F 33 °F (1968)
Degree Days  
Heating Degree Days 17    
Moisture  
Dew Point 43 °F    
Average Humidity 84    
Maximum Humidity 92    
Minimum Humidity 72    
Precipitation  
Precipitation 0.00 in - - ()
Sea Level Pressure  
Sea Level Pressure 30.14 in    
Wind  
Wind Speed 12 mph (NNW)    
Max Wind Speed 17 mph    
Max Gust Speed 23 mph    
Visibility 10 miles    
Events      
Averages and records for this station are not official NWS values.
T = Trace of Precipitation, MM = Missing Value Source: NWS Daily Summary

Daily Weather History Graph

Daily Weather History Graph

Search for Another Location

Airport or City:

Trip Planner

Search our weather history database for the weather conditions in past years. The results will help you decide how hot, cold, wet, or windy it might be!

Date:

Astronomy

May. 05, 2013 Rise Set
Actual Time 6:18 AM CDT 8:28 PM CDT
Civil Twilight 5:48 AM CDT 8:58 PM CDT
Nautical Twilight 5:10 AM CDT 9:36 PM CDT
Astronomical Twilight 4:29 AM CDT 10:17 PM CDT
Moon 3:52 AM CDT (5/5) 4:26 PM CDT (5/5)
Length of Visible Light 15h 10m
Length of Day
14h 09m
Waning Crescent, 18% of the Moon is Illuminated
May 5
Waning Crescent
May 9
New
May 17
First Quarter
May 24
Full
May 31
Last Quarter

Hourly Weather History & Observations

Time (CDT) Temp. Windchill Dew Point Humidity Pressure Visibility Wind Dir Wind Speed Gust Speed Precip Events Conditions
12:15 AM 41.9 °F 35.0 °F 39.0 °F 90% 30.15 in 10.0 mi North 12.7 mph - N/A   Overcast
12:35 AM 41.9 °F 35.0 °F 39.0 °F 90% 30.15 in 10.0 mi NNW 12.7 mph - N/A   Overcast
12:55 AM 41.9 °F 35.0 °F 39.2 °F 90% 30.15 in 10.0 mi NNW 12.7 mph - N/A   Overcast
1:15 AM 41.9 °F 35.0 °F 39.0 °F 90% 30.15 in 10.0 mi North 12.7 mph - N/A   Overcast
1:35 AM 41.9 °F 35.0 °F 39.2 °F 90% 30.15 in 10.0 mi North 12.7 mph - N/A   Overcast
1:55 AM 41.9 °F 35.0 °F 39.2 °F 90% 30.14 in 10.0 mi North 12.7 mph - N/A   Overcast
2:15 AM 41.4 °F 34.7 °F 39.2 °F 92% 30.14 in 7.0 mi NNW 11.5 mph 16.1 mph N/A   Overcast
2:35 AM 41.4 °F 34.0 °F 39.2 °F 92% 30.14 in 10.0 mi NNW 13.8 mph - N/A   Overcast
2:55 AM 41.4 °F 34.3 °F 39.2 °F 92% 30.13 in 10.0 mi NNW 12.7 mph - N/A   Overcast
3:15 AM 41.4 °F 33.3 °F 38.8 °F 91% 30.13 in 10.0 mi NNW 16.1 mph - N/A   Overcast
3:35 AM 41.4 °F 33.3 °F 38.8 °F 91% 30.12 in 10.0 mi North 16.1 mph - N/A   Overcast
3:55 AM 41.4 °F 34.0 °F 38.8 °F 91% 30.13 in 10.0 mi NNW 13.8 mph - N/A   Overcast
4:15 AM 41.5 °F 34.2 °F 38.8 °F 90% 30.13 in 10.0 mi NNW 13.8 mph 18.4 mph N/A   Overcast
4:35 AM 41.4 °F 34.3 °F 38.8 °F 91% 30.13 in 10.0 mi NNW 12.7 mph - N/A   Overcast
4:55 AM 41.5 °F 33.8 °F 38.8 °F 90% 30.13 in 10.0 mi NNW 15.0 mph - N/A   Overcast
5:15 AM 41.5 °F 34.2 °F 38.8 °F 90% 30.13 in 10.0 mi NNW 13.8 mph - N/A   Overcast
5:55 AM 41.5 °F 34.2 °F 39.2 °F 91% 30.14 in 10.0 mi North 13.8 mph - N/A   Light Drizzle
6:15 AM 41.4 °F 35.2 °F 39.2 °F 92% 30.14 in 10.0 mi North 10.4 mph - N/A   Drizzle
6:35 AM 41.5 °F 35.4 °F 39.2 °F 91% 30.15 in 10.0 mi NNW 10.4 mph - N/A   Light Drizzle
6:55 AM 41.5 °F 34.6 °F 39.2 °F 91% 30.15 in 10.0 mi NNW 12.7 mph - N/A   Light Drizzle
7:15 AM 41.5 °F 33.8 °F 39.2 °F 91% 30.15 in 7.0 mi NNW 15.0 mph - N/A   Overcast
7:35 AM 41.9 °F 34.3 °F 39.2 °F 90% 30.16 in 10.0 mi NNW 15.0 mph - N/A   Overcast
7:55 AM 41.9 °F 34.3 °F 39.2 °F 90% 30.16 in 10.0 mi NNW 15.0 mph - N/A   Overcast
8:15 AM 42.1 °F 35.2 °F 39.4 °F 90% 30.17 in 10.0 mi NNW 12.7 mph - N/A   Overcast
8:35 AM 42.4 °F 35.3 °F 39.6 °F 90% 30.17 in 10.0 mi NNW 13.8 mph - N/A   Overcast
8:55 AM 42.8 °F 35.4 °F 39.6 °F 88% 30.16 in 10.0 mi NNW 15.0 mph 18.4 mph N/A   Overcast
9:15 AM 43.0 °F 35.7 °F 39.9 °F 89% 30.17 in 10.0 mi NNW 15.0 mph - N/A   Overcast
9:35 AM 43.7 °F 36.0 °F 40.1 °F 87% 30.17 in 10.0 mi NNW 17.3 mph 23.0 mph N/A   Overcast
9:55 AM 44.6 °F 37.4 °F 40.6 °F 86% 30.17 in 10.0 mi NNW 16.1 mph 19.6 mph N/A   Overcast
10:15 AM 45.0 °F 38.2 °F 40.8 °F 85% 30.17 in 10.0 mi NNW 15.0 mph - N/A   Overcast
10:35 AM 45.3 °F 38.7 °F 40.8 °F 84% 30.17 in 10.0 mi NNW 15.0 mph 19.6 mph N/A   Overcast
10:55 AM 45.5 °F 38.9 °F 40.8 °F 84% 30.17 in 10.0 mi North 15.0 mph - N/A   Overcast
11:15 AM 46.4 °F 40.7 °F 41.4 °F 83% 30.18 in 10.0 mi North 12.7 mph - N/A   Overcast
11:35 AM 47.3 °F - 42.1 °F 82% 30.18 in 10.0 mi NNW 12.7 mph - N/A   Overcast
11:55 AM 48.2 °F - 42.3 °F 80% 30.18 in 10.0 mi NNW 11.5 mph - N/A   Overcast
12:15 PM 49.1 °F - 42.8 °F 79% 30.17 in 10.0 mi NNW 12.7 mph - N/A   Overcast
12:35 PM 50.2 °F - 43.3 °F 77% 30.17 in 10.0 mi NNW 13.8 mph - N/A   Overcast
1:15 PM 50.0 °F - 43.2 °F 77% 30.16 in 10.0 mi NNW 12.7 mph - N/A   Overcast
1:35 PM 50.9 °F - 43.7 °F 76% 30.16 in 10.0 mi NNW 11.5 mph - N/A   Overcast
1:55 PM 51.4 °F - 44.1 °F 76% 30.16 in 10.0 mi North 13.8 mph - N/A   Overcast
2:15 PM 51.4 °F - 44.2 °F 76% 30.16 in 10.0 mi NNW 11.5 mph - N/A   Overcast
2:35 PM 50.9 °F - 44.2 °F 78% 30.15 in 10.0 mi NNW 17.3 mph - N/A   Overcast
2:55 PM 51.1 °F - 44.6 °F 78% 30.15 in 10.0 mi NNW 11.5 mph 17.3 mph N/A   Overcast
3:15 PM 50.9 °F - 44.8 °F 80% 30.15 in 10.0 mi NNW 13.8 mph - N/A   Overcast
3:35 PM 51.8 °F - 45.5 °F 79% 30.14 in 10.0 mi NNW 11.5 mph - N/A   Overcast
3:55 PM 52.7 °F - 45.5 °F 76% 30.13 in 10.0 mi NNW 12.7 mph 16.1 mph N/A   Overcast
4:15 PM 53.2 °F - 46.0 °F 77% 30.13 in 10.0 mi NNW 15.0 mph - N/A   Overcast
4:35 PM 54.1 °F - 46.2 °F 75% 30.12 in 10.0 mi NNW 13.8 mph - N/A   Overcast
4:55 PM 54.0 °F - 46.0 °F 75% 30.12 in 10.0 mi NNW 10.4 mph - N/A   Overcast
5:15 PM 54.9 °F - 46.4 °F 73% 30.12 in 10.0 mi North 10.4 mph - N/A   Overcast
5:35 PM 55.9 °F - 46.9 °F 72% 30.12 in 10.0 mi North 10.4 mph - N/A   Overcast
5:55 PM 55.6 °F - 46.6 °F 72% 30.12 in 10.0 mi North 10.4 mph - N/A   Overcast
6:15 PM 54.9 °F - 46.8 °F 74% 30.12 in 10.0 mi North 11.5 mph - N/A   Overcast
6:35 PM 54.7 °F - 46.6 °F 74% 30.12 in 10.0 mi NNW 9.2 mph - N/A   Overcast
6:55 PM 54.7 °F - 46.8 °F 75% 30.12 in 10.0 mi North 10.4 mph - N/A   Overcast
7:15 PM 53.4 °F - 46.4 °F 77% 30.11 in 10.0 mi North 10.4 mph - N/A   Mostly Cloudy
7:35 PM 52.3 °F - 46.4 °F 80% 30.12 in 10.0 mi North 8.1 mph - N/A   Clear
7:55 PM 51.3 °F - 45.9 °F 82% 30.12 in 10.0 mi North 6.9 mph - N/A   Scattered Clouds
8:15 PM 50.9 °F - 45.9 °F 83% 30.12 in 10.0 mi North 5.8 mph - N/A   Mostly Cloudy
8:35 PM 50.9 °F - 46.4 °F 85% 30.12 in 10.0 mi NNW 5.8 mph - N/A   Overcast
8:55 PM 50.9 °F - 46.0 °F 83% 30.12 in 10.0 mi NNW 5.8 mph - N/A   Overcast
9:35 PM 49.3 °F - 45.5 °F 87% 30.13 in 10.0 mi NNW 6.9 mph - N/A   Overcast
9:55 PM 50.0 °F - 46.0 °F 86% 30.14 in 10.0 mi NNW 5.8 mph - N/A   Overcast
10:15 PM 50.2 °F - 46.0 °F 86% 30.14 in 10.0 mi NNW 5.8 mph - N/A   Overcast
10:35 PM 50.2 °F - 46.4 °F 87% 30.14 in 10.0 mi North 4.6 mph - N/A   Overcast
10:55 PM 50.2 °F - 46.2 °F 86% 30.15 in 10.0 mi North 5.8 mph - N/A   Overcast
11:15 PM 50.0 °F - 46.4 °F 87% 30.15 in 10.0 mi NNW 5.8 mph - N/A   Overcast
11:35 PM 50.0 °F - 46.0 °F 86% 30.15 in 10.0 mi NNW 4.6 mph - N/A   Overcast
11:55 PM 49.8 °F - 45.9 °F 86% 30.14 in 10.0 mi NNW 4.6 mph - N/A   Overcast